Regional Weather Roundup
Issued by NWS

Home | Current Version | Previous Version | Text Only | Print | Product List | Glossary Off
Versions: 1 2 3 4 5 6 7 8 9 10 11 12 13 14 15 16 17 18 19 20 21 22 23 24 25 26 27 28 29 30 31 32 33 34 35 36 37 38 39 40 41 42 43 44 45 46 47 48 49 50

000
ASUS45 KSLC 010510
RWRUT

UTAH REGIONAL WEATHER ROUNDUP
NATIONAL WEATHER SERVICE SALT LAKE CITY UT
1100 PM MDT THU JUL 31 2014

UTZ001>011-023>025-010600-

NORTHERN UTAH

CITY           SKY/WX    TMP DP  RH WIND       PRES   REMARKS
HILL AFB       PTCLDY    71  54  54 E6        30.17R
LOGAN          CLEAR     69  49  48 S5        30.15R
OGDEN          PTCLDY    72  54  53 SE3       30.14S
PROVO AIRPORT  PTCLDY    70  54  56 S6        30.17R
SALT LAKE CITY MOCLDY    73  53  49 SE3       30.13R
VERNAL         CLOUDY    71  43  36 NW7       30.16S
WENDOVER       MOCLDY    75  43  31 NW14      30.15S
HEBER CITY     PTCLDY    61  54  77 CALM      30.24R
WEST JORDAN    CLEAR     72  57  60 W5        30.17R

$$

UTZ012>022-026-027-010600-

SOUTHERN UTAH

CITY           SKY/WX    TMP DP  RH WIND       PRES   REMARKS
BRYCE CANYON   RAIN      55  52  89 NW23G30   30.43R
CEDAR CITY     LGT RAIN  66  56  70 S12       30.26F
MILFORD        MOCLDY    67  54  63 W8        30.19R
MOAB/CYNLANDS    N/A     69  57  65 S10G21    30.14R THUNDER
PRICE          MOCLDY    64  55  72 N3        30.23S
ST GEORGE      PTCLDY    82  54  36 NE23G29   30.04R
KANAB          MOCLDY    79  46  31 NW13      30.22R

$$

REGIONAL REPORTS     COLORADO/ARIZONA

CITY           SKY/WX    TMP DP  RH WIND       PRES   REMARKS
CRAIG, CO      CLOUDY    58  52  80 NE8       30.24R
GRAND JUNCTION MOCLDY    76  52  43 N6        30.12R
RIFLE          MOCLDY    69  48  47 SE9       30.19R
MONTROSE       MOCLDY    70  57  63 S8        30.20S
CORTEZ         CLEAR     68  50  52 SW3       30.21R
PAGE, AZ       CLOUDY    79  52  38 W7        30.15R
GRAND CANYON   MOCLDY    56  52  86 NE3       30.33R
KINGMAN        MOCLDY    84  50  30 SE21      30.02S
FLAGSTAFF      CLOUDY    56  54  93 SW3       30.35S

$$

REGIONAL REPORTS    NEVADA/IDAHO/WYOMING

CITY           SKY/WX    TMP DP  RH WIND       PRES   REMARKS
LAS VEGAS, NV  MOCLDY    99  43  14 SW10      29.83R HX  95
ELY            MOCLDY    61  47  59 SE9       30.28F
ELKO           CLOUDY    65  51  60 NE12      30.21R
POCATELLO, ID  CLOUDY    75  47  36 NE12      30.18R
BURLEY         MOCLDY    73  48  41 W7        30.15R
EVANSTON, WY   PTCLDY    62  43  49 E5        30.33R
ROCK SPRINGS   CLEAR     68  32  26 E9        30.30S

$$


USA.gov is the U.S. government's official web portal to all federal, state and local government web resources and services.